K9BM Weather Reports


Display with metric or nautical units.
time (UTC)temp
F
wind
direction
speed
MPH
gust
MPH
rain 1hr
in
rain 24hr
in
rain mn
in
humidity
%
barometer
mb
20260904195506 83 260 13.0 20.0 0.00 0.00 0.00 17 1001.4
20260904195005 82 259 12.0 23.0 0.00 0.00 0.00 17 1001.5
20260904194506 82 252 16.0 23.0 0.00 0.00 0.00 17 1001.5
20260904194006 81 246 13.0 21.0 0.00 0.00 0.00 17 1001.4
20260904193506 81 256 14.0 21.0 0.00 0.00 0.00 17 1001.5
20260904193006 80 265 13.0 20.0 0.00 0.00 0.00 18 1001.6
20260904192506 81 257 14.0 20.0 0.00 0.00 0.00 18 1001.6
20260904192006 81 274 12.0 22.0 0.00 0.00 0.00 18 1001.5
20260904191505 82 270 12.0 22.0 0.00 0.00 0.00 18 1001.5
20260904191006 81 252 10.0 22.0 0.00 0.00 0.00 19 1001.5
20260904190006 79 293 5.0 13.0 0.00 0.00 0.00 20 1001.7
20260904185005 80 270 7.0 13.0 0.00 0.00 0.00 20 1001.7
20260904184006 79 294 1.0 8.0 0.00 0.00 0.00 20 1001.6
20260904183506 78 306 5.0 12.0 0.00 0.00 0.00 22 1001.7
20260904183005 77 305 6.0 12.0 0.00 0.00 0.00 22 1001.8
20260904182006 78 312 7.0 14.0 0.00 0.00 0.00 22 1001.7
20260904181505 78 301 7.0 15.0 0.00 0.00 0.00 23 1001.7
20260904181006 77 305 10.0 15.0 0.00 0.00 0.00 22 1001.7
20260904180005 77 278 6.0 16.0 0.00 0.00 0.00 22 1001.7
20260904175506 77 310 6.0 13.0 0.00 0.00 0.00 23 1001.9
20260904174505 76 303 5.0 12.0 0.00 0.00 0.00 27 1001.9
20260904174006 76 310 6.0 12.0 0.00 0.00 0.00 26 1001.9
20260904173506 76 275 8.0 12.0 0.00 0.00 0.00 25 1001.8
20260904173006 75 285 4.0 10.0 0.00 0.00 0.00 27 1001.8
20260904172006 75 307 6.0 12.0 0.00 0.00 0.00 26 1001.7
20260904171006 75 299 5.0 8.0 0.00 0.00 0.00 24 1001.6
20260904170006 73 10 0.0 3.0 0.00 0.00 0.00 24 1001.5
20260904165505 72 11 1.0 3.0 0.00 0.00 0.00 27 1001.5
20260904165005 71 11 0.0 3.0 0.00 0.00 0.00 28 1001.5
20260904164505 71 11 0.0 5.0 0.00 0.00 0.00 29 1001.5
20260904164005 70 10 3.0 5.0 0.00 0.00 0.00 31 1001.5
20260904163505 70 21 2.0 8.0 0.00 0.00 0.00 31 1001.6
20260904163006 69 329 2.0 8.0 0.00 0.00 0.00 31 1001.6
20260904162505 69 2 3.0 8.0 0.00 0.00 0.00 32 1001.5
20260904162006 68 13 3.0 8.0 0.00 0.00 0.00 33 1001.3
20260904161506 68 15 3.0 8.0 0.00 0.00 0.00 33 1001.3
20260904161005 67 26 3.0 10.0 0.00 0.00 0.00 35 1001.3
20260904160005 67 11 3.0 10.0 0.00 0.00 0.00 36 1001.3
20260904155006 67 0 4.0 10.0 0.00 0.00 0.00 36 1001.2
20260904154506 67 339 5.0 10.0 0.00 0.00 0.00 37 1001.2
20260904154006 67 329 5.0 9.0 0.00 0.00 0.00 37 1001.1
20260904153006 65 320 5.0 12.0 0.00 0.00 0.00 39 1001.2
20260904151505 64 351 3.0 14.0 0.00 0.00 0.00 39 1001.0
20260904151006 64 358 5.0 15.0 0.00 0.00 0.00 40 1001.2
20260904150006 67 306 2.0 12.0 0.00 0.00 0.00 35 1001.1
20260904145505 66 157 7.0 14.0 0.00 0.00 0.00 36 1000.9
20260904145006 65 150 9.0 14.0 0.00 0.00 0.00 37 1000.9
20260904144505 64 166 9.0 13.0 0.00 0.00 0.00 38 1001.1
20260904144006 63 167 7.0 12.0 0.00 0.00 0.00 39 1001.2
20260904143006 62 185 4.0 7.0 0.00 0.00 0.00 41 1001.4
20260904142505 62 185 3.0 7.0 0.00 0.00 0.00 41 1001.3
20260904142006 61 183 5.0 7.0 0.00 0.00 0.00 42 1001.3
20260904141505 61 186 4.0 8.0 0.00 0.00 0.00 43 1001.4
20260904141006 60 172 6.0 8.0 0.00 0.00 0.00 44 1001.3
20260904140005 58 189 2.0 3.0 0.00 0.00 0.00 46 1001.3
20260904135506 57 174 0.0 3.0 0.00 0.00 0.00 48 1001.3
20260904135005 57 174 0.0 3.0 0.00 0.00 0.00 49 1001.2
20260904134505 57 174 1.0 7.0 0.00 0.00 0.00 48 1001.0
20260904134006 57 174 1.0 7.0 0.00 0.00 0.00 49 1001.0
20260904133505 56 191 2.0 7.0 0.00 0.00 0.00 49 1001.0
20260904133006 56 197 3.0 6.0 0.00 0.00 0.00 51 1001.0
20260904132505 55 197 3.0 6.0 0.00 0.00 0.00 50 1001.0
20260904132006 55 197 5.0 7.0 0.00 0.00 0.00 50 1001.0
20260904131505 54 198 5.0 7.0 0.00 0.00 0.00 50 1000.9
20260904131005 54 201 2.0 6.0 0.00 0.00 0.00 51 1000.7
20260904130006 54 235 1.0 5.0 0.00 0.00 0.00 50 1000.7
20260904125505 54 235 3.0 5.0 0.00 0.00 0.00 50 1000.5
20260904125006 55 242 2.0 7.0 0.00 0.00 0.00 50 1000.4
20260904124005 55 245 6.0 8.0 0.00 0.00 0.00 49 1000.6
20260904123506 55 223 3.0 5.0 0.00 0.00 0.00 47 1000.4
20260904123006 56 142 0.0 0.0 0.00 0.00 0.00 46 1000.3
20260904122506 57 137 0.0 0.0 0.00 0.00 0.00 46 1000.3
20260904122006 57 95 0.0 0.0 0.00 0.00 0.00 44 1000.3
20260904121505 57 95 0.0 0.0 0.00 0.00 0.00 44 1000.4
20260904121006 57 94 0.0 0.0 0.00 0.00 0.00 44 1000.4
20260904120005 57 77 0.0 0.0 0.00 0.00 0.00 43 1000.3
20260904115505 58 77 0.0 0.0 0.00 0.00 0.00 42 1000.4
20260904115005 58 76 0.0 0.0 0.00 0.00 0.00 41 1000.4
20260904114505 59 76 0.0 0.0 0.00 0.00 0.00 40 1000.5
20260904113506 60 75 0.0 0.0 0.00 0.00 0.00 39 1000.2
20260904112505 60 75 0.0 0.0 0.00 0.00 0.00 39 1000.1
20260904111505 60 75 0.0 5.0 0.00 0.00 0.00 39 1000.1
20260904111005 61 76 1.0 5.0 0.00 0.00 0.00 39 1000.1
20260904110005 61 82 3.0 5.0 0.00 0.00 0.00 38 1000.1
20260904105505 61 80 3.0 6.0 0.00 0.00 0.00 38 1000.1
20260904105005 61 75 3.0 6.0 0.00 0.00 0.00 38 1000.2
20260904104505 61 57 4.0 6.0 0.00 0.00 0.00 39 1000.2
20260904104006 60 63 2.0 5.0 0.00 0.00 0.00 40 1000.2
20260904103005 59 67 2.0 5.0 0.00 0.00 0.00 41 1000.3
20260904102505 58 55 3.0 5.0 0.00 0.00 0.00 42 1000.3
20260904102005 59 39 3.0 5.0 0.00 0.00 0.00 42 1000.3
20260904101506 59 32 3.0 5.0 0.00 0.00 0.00 42 1000.4
20260904101005 59 44 3.0 5.0 0.00 0.00 0.00 41 1000.5
20260904100005 60 56 2.0 3.0 0.00 0.00 0.00 40 1000.4
20260904095005 61 58 2.0 5.0 0.00 0.00 0.00 39 1000.4
20260904094505 61 59 3.0 6.0 0.00 0.00 0.00 39 1000.4
20260904094005 61 54 5.0 7.0 0.00 0.00 0.00 38 1000.4
20260904093505 62 57 3.0 8.0 0.00 0.00 0.00 38 1000.4
20260904093006 62 53 5.0 9.0 0.00 0.00 0.00 38 1000.4
20260904091505 62 71 2.0 8.0 0.00 0.00 0.00 38 1000.7
20260904091005 61 63 3.0 8.0 0.00 0.00 0.00 38 1000.7
20260904090005 62 81 5.0 9.0 0.00 0.00 0.00 38 1000.7
20260904085505 62 69 6.0 9.0 0.00 0.00 0.00 38 1000.6
20260904085005 61 69 3.0 9.0 0.00 0.00 0.00 39 1000.8
20260904084505 61 79 4.0 6.0 0.00 0.00 0.00 40 1001.0
20260904084005 61 43 1.0 7.0 0.00 0.00 0.00 40 1001.1
20260904083506 61 41 5.0 7.0 0.00 0.00 0.00 39 1001.2
20260904082006 63 40 3.0 5.0 0.00 0.00 0.00 38 1001.4
20260904081505 64 30 3.0 5.0 0.00 0.00 0.00 37 1001.5
20260904081005 64 93 2.0 7.0 0.00 0.00 0.00 34 1001.5
20260904080005 64 108 3.0 6.0 0.00 0.00 0.00 34 1001.4
20260904075505 64 116 3.0 6.0 0.00 0.00 0.00 33 1001.5
20260904075005 64 116 4.0 7.0 0.00 0.00 0.00 33 1001.6
20260904074505 65 116 5.0 8.0 0.00 0.00 0.00 33 1001.6
20260904073506 65 117 7.0 9.0 0.00 0.00 0.00 32 1001.6
20260904073006 65 115 6.0 10.0 0.00 0.00 0.00 32 1001.5
20260904072006 66 115 8.0 10.0 0.00 0.00 0.00 32 1001.6
20260904071506 66 111 7.0 12.0 0.00 0.00 0.00 32 1001.7
20260904071006 66 109 9.0 12.0 0.00 0.00 0.00 32 1001.6
20260904070005 66 98 8.0 12.0 0.00 0.00 0.00 32 1001.7
20260904065505 66 103 9.0 13.0 0.00 0.00 0.00 32 1001.7
20260904065006 66 104 9.0 14.0 0.00 0.00 0.00 32 1001.7
20260904064505 66 97 10.0 15.0 0.00 0.00 0.00 32 1001.7
20260904064005 66 98 12.0 15.0 0.00 0.00 0.00 32 1001.7
20260904063506 66 101 12.0 15.0 0.00 0.00 0.00 32 1001.8
20260904063005 67 102 10.0 17.0 0.00 0.00 0.00 32 1001.6
20260904062505 67 111 13.0 17.0 0.00 0.00 0.00 32 1001.7
20260904062005 66 101 11.0 15.0 0.00 0.00 0.00 32 1001.6
20260904061505 66 100 10.0 13.0 0.00 0.00 0.00 32 1001.5
20260904061005 66 94 10.0 14.0 0.00 0.00 0.00 32 1001.7
20260904055005 65 100 6.0 7.0 0.00 0.00 0.00 35 1001.8
20260904054505 65 159 5.0 5.0 0.00 0.00 0.00 33 1001.9
20260904054005 65 160 2.0 7.0 0.00 0.00 0.00 34 1002.0
20260904053505 65 160 2.0 7.0 0.00 0.00 0.00 34 1002.1
20260904053006 66 159 4.0 7.0 0.00 0.00 0.00 34 1002.2
20260904052505 66 97 1.0 3.0 0.00 0.00 0.00 34 1002.1
20260904052006 66 97 3.0 6.0 0.00 0.00 0.00 33 1002.1
20260904051505 66 97 3.0 7.0 0.00 0.00 0.00 33 1002.1
20260904051005 67 108 3.0 10.0 0.00 0.00 0.00 32 1002.2
20260904045505 66 118 8.0 12.0 0.00 0.00 0.00 32 1002.3
20260904045005 67 120 8.0 12.0 0.00 0.00 0.00 32 1002.4
20260904044505 67 195 5.0 7.0 0.00 0.00 0.00 32 1002.2
20260904044005 67 211 3.0 6.0 0.00 0.00 0.00 31 1002.2
20260904043005 67 240 5.0 8.0 0.00 0.00 0.00 31 1002.2
20260904042005 67 192 5.0 6.0 0.00 0.00 0.00 32 1002.5
20260904041505 67 206 3.0 5.0 0.00 0.00 0.00 31 1002.4
20260904040006 68 224 3.0 5.0 0.00 0.00 0.00 30 1002.3
20260904035504 69 233 3.0 6.0 0.00 0.00 0.00 29 1002.3
20260904035006 69 235 5.0 6.0 0.00 0.00 0.00 28 1002.4
20260904033505 69 222 3.0 5.0 0.00 0.00 0.00 29 1002.7
20260904033006 69 216 3.0 5.0 0.00 0.00 0.00 29 1002.7
20260904032505 69 207 3.0 3.0 0.00 0.00 0.00 28 1002.7
20260904031505 69 200 2.0 6.0 0.00 0.00 0.00 28 1002.7
20260904031005 69 197 2.0 5.0 0.00 0.00 0.00 28 1002.7
20260904030005 69 197 2.0 3.0 0.00 0.00 0.00 28 1002.8
20260904025505 69 197 3.0 6.0 0.00 0.00 0.00 28 1002.8
20260904025005 69 195 4.0 6.0 0.00 0.00 0.00 28 1002.8
20260904024505 70 187 5.0 6.0 0.00 0.00 0.00 28 1002.8
20260904023005 71 197 5.0 7.0 0.00 0.00 0.00 27 1002.7
20260904022505 71 199 5.0 7.0 0.00 0.00 0.00 26 1002.6
20260904022005 71 207 2.0 3.0 0.00 0.00 0.00 26 1002.6
20260904021506 72 203 2.0 7.0 0.00 0.00 0.00 25 1002.6
20260904021005 72 198 3.0 7.0 0.00 0.00 0.00 25 1002.6
20260904020005 73 196 6.0 7.0 0.00 0.00 0.00 24 1002.5
20260904015505 73 226 3.0 6.0 0.00 0.00 0.00 24 1002.4
20260904015005 73 228 5.0 7.0 0.00 0.00 0.00 23 1002.3
20260904014505 73 197 4.0 9.0 0.00 0.00 0.00 24 1002.3
20260904014005 74 217 3.0 9.0 0.00 0.00 0.00 23 1002.3
20260904013505 74 202 4.0 12.0 0.00 0.00 0.00 23 1002.2
20260904012505 74 234 6.0 10.0 0.00 0.00 0.00 22 1002.1
20260904012005 74 233 7.0 14.0 0.00 0.00 0.00 22 1002.0
20260904011504 75 230 7.0 16.0 0.00 0.00 0.00 22 1001.9
20260904011005 75 236 7.0 16.0 0.00 0.00 0.00 22 1001.9
20260904005505 76 231 9.0 13.0 0.00 0.00 0.00 20 1001.8
20260904005005 76 226 9.0 13.0 0.00 0.00 0.00 20 1001.7
20260904004504 76 229 6.0 13.0 0.00 0.00 0.00 20 1001.7
20260904004005 76 230 9.0 13.0 0.00 0.00 0.00 20 1001.6
20260904003505 77 233 9.0 14.0 0.00 0.00 0.00 20 1001.5
20260904003005 78 225 8.0 14.0 0.00 0.00 0.00 20 1001.5
20260904002505 78 233 7.0 13.0 0.00 0.00 0.00 19 1001.5
20260904001005 77 225 8.0 16.0 0.00 0.00 0.00 20 1001.4
20260904000005 77 238 7.0 15.0 0.00 0.00 0.00 21 1001.4
20260903235505 77 241 10.0 15.0 0.00 0.00 0.00 21 1001.4
20260903235005 77 229 10.0 15.0 0.00 0.00 0.00 21 1001.4
20260903234505 77 236 10.0 15.0 0.00 0.00 0.00 20 1001.3
20260903234005 77 230 9.0 15.0 0.00 0.00 0.00 21 1001.3
20260903233505 78 231 10.0 20.0 0.00 0.00 0.00 21 1001.3
20260903233005 78 229 9.0 20.0 0.00 0.00 0.00 21 1001.2
20260903232505 77 197 10.0 15.0 0.00 0.00 0.00 21 1001.2
20260903232005 77 233 7.0 20.0 0.00 0.00 0.00 22 1001.2
20260903231505 77 208 7.0 20.0 0.00 0.00 0.00 21 1001.3
20260903231005 78 211 13.0 20.0 0.00 0.00 0.00 21 1001.2
20260903230005 77 205 10.0 17.0 0.00 0.00 0.00 21 1001.2
20260903225505 77 226 9.0 16.0 0.00 0.00 0.00 21 1001.2
20260903225005 78 233 10.0 16.0 0.00 0.00 0.00 21 1001.2
20260903224505 78 210 10.0 23.0 0.00 0.00 0.00 21 1001.3
20260903223505 78 237 9.0 17.0 0.00 0.00 0.00 21 1001.2
20260903223005 78 203 10.0 15.0 0.00 0.00 0.00 21 1001.3
20260903222504 78 213 7.0 15.0 0.00 0.00 0.00 22 1001.3
20260903222005 79 215 8.0 18.0 0.00 0.00 0.00 21 1001.5
20260903221505 79 194 9.0 21.0 0.00 0.00 0.00 20 1001.4
20260903221005 79 181 12.0 22.0 0.00 0.00 0.00 21 1001.3
20260903220004 79 195 12.0 22.0 0.00 0.00 0.00 20 1001.3
20260903214504 77 271 6.0 13.0 0.00 0.00 0.00 24 1001.4
20260903214005 76 330 2.0 12.0 0.00 0.00 0.00 25 1001.2
20260903213505 76 271 4.0 12.0 0.00 0.00 0.00 26 1001.4
20260903213005 75 245 2.0 12.0 0.00 0.00 0.00 26 1001.3
20260903211505 75 262 8.0 13.0 0.00 0.00 0.00 26 1001.4
20260903211005 76 269 7.0 13.0 0.00 0.00 0.00 26 1001.3
20260903210005 77 283 10.0 18.0 0.00 0.00 0.00 24 1001.3
20260903205504 77 246 6.0 18.0 0.00 0.00 0.00 24 1001.3
20260903205005 75 207 3.0 12.0 0.00 0.00 0.00 26 1001.3
20260903204505 75 204 5.0 12.0 0.00 0.00 0.00 26 1001.4
20260903204005 74 253 8.0 12.0 0.00 0.00 0.00 27 1001.5
20260903203504 74 256 6.0 10.0 0.00 0.00 0.00 27 1001.6
20260903203005 73 275 6.0 10.0 0.00 0.00 0.00 27 1001.5
20260903202005 74 282 9.0 12.0 0.00 0.00 0.00 27 1001.5
20260903201504 74 252 5.0 12.0 0.00 0.00 0.00 26 1001.5
20260903201004 74 241 7.0 17.0 0.00 0.00 0.00 26 1001.5
20260903200005 74 253 10.0 15.0 0.00 0.00 0.00 27 1001.5